Location: Marcé
(47.5801°N, 0.3280°W)
Time: 09:48:06
(UTC+01:00)

Explorer 7 - Pass Details

Date: 03 December 2021
Orbit: 483 x 674 km, 50.3° (Epoch: 24 January)

Event Time Altitude Azimuth Distance (km) Brightness Sun altitude
Rises 06:09:48 0° 203° (SSW) 2,841 - -23.0°
Exits shadow 06:11:24 - 196° (SSW) 2,279 9.9 -22.7°
Reaches altitude 10° 06:12:34 10° 188° (S) 1,903 9.6 -22.5°
Maximum altitude 06:15:48 21° 139° (SE) 1,311 9.3 -22.0°
Drops below altitude 10° 06:18:54 10° 91° (E) 1,820 10.6 -21.4°
Sets 06:21:29 0° 74° (ENE) 2,679 11.4 -21.0°
